Location: Peebles
(55.6412°N, 3.1714°W)
Time: 16:48:21
(UTC+00:00)

MOZHAYETS 4 - Pass Details

Date: 14 December 2023
Orbit: 654 x 672 km, 98.3° (Epoch: 02 March)

Event Time Altitude Azimuth Distance (km) Brightness Sun altitude
Exits shadow 17:48:23 - 8° (N) 2,853 10.7 -16.4°
Reaches altitude 10° 17:50:25 10° 358° (N) 2,122 10.1 -16.7°
Maximum altitude 17:54:13 26° 303° (WNW) 1,340 9.7 -17.2°
Drops below altitude 10° 17:57:59 10° 248° (WSW) 2,109 11.6 -17.7°
Sets 18:00:30 0° 235° (SW) 3,017 12.4 -18.1°
